Flag for U.S.A. Weather past 2 weeks in Springfield, Illinois, U.S.A.

Now
69 °F

Clear.


Feels Like: 69 °F
Forecast: 65 / 85 °F
Wind: 3 mph from Southeast

Location: Capital Airport

Current Time: Jul 5, 2015 at 1:34:49 AM

Latest Report: Jul 5, 2015 at 12:52 AM


Visibility: 5 mi

Pressure: 30.03 "Hg

Humidity: 81%

Dew point: 63 °F

Location of SpringfieldLocation

Historic Weather in Springfield — Graph

°F

Springfield temperature yesterday

Maximum temperature yesterday: 83 °F (at 3:52 PM)
Minimum temperature yesterday: 61 °F (at 6:01 AM)
Average temperature yesterday: 73 °F

Past Weeks' High & Low Weather Summary

 TemperatureHumidityPressure
High88 °F (Jun 22, 2:52 PM)94% (Jun 29, 1:52 AM)30.23 "Hg (Jun 29, 1:52 AM)
Low61 °F (Jun 28, 3:52 AM)48% (Jun 23, 4:52 PM)29.72 "Hg (Jun 29, 1:52 AM)
Average73 °F78%29.93 "Hg
* Reported Jun 19 11:52 PM — Jul 4 11:52 PM, Springfield, Weather by CustomWeather, © 2015

Note: Actual official high and low records may vary slightly from our data, if they occured in-between our weather recording intervals... More about our weather records

Advertising

Springfield weather history for previous 24 hours

 ConditionsComfort  
Time TempWeatherWind HumidityBarometerVisibility
11:52 PM
Sat, Jul 4
70 °FClear.3 mph79%30.02 "Hg5 mi
10:52 PM71 °FClear.No wind76%30.01 "Hg6 mi
9:52 PM73 °FClear.5 mph74%30.01 "Hg9 mi
8:52 PM75 °FPartly sunny.5 mph71%29.99 "Hg10 mi
7:52 PM78 °FSunny.3 mph69%29.98 "Hg10 mi
6:52 PM81 °FSunny.3 mph56%29.97 "Hg10 mi
5:52 PM83 °FSunny.No wind53%29.97 "Hg10 mi
4:52 PM83 °FSunny.No wind53%29.98 "Hg10 mi
3:52 PM83 °FSunny.No wind48%29.98 "Hg10 mi
2:52 PM82 °FPassing clouds.No wind51%30.00 "Hg10 mi
1:52 PM81 °FScattered clouds.3 mph53%30.01 "Hg10 mi
12:52 PM80 °FPartly sunny.3 mph54%30.01 "Hg10 mi
11:52 AM79 °FPartly sunny.3 mph58%30.02 "Hg10 mi
10:52 AM77 °FPartly sunny.5 mph66%30.03 "Hg10 mi
9:52 AM76 °FSunny.No wind72%30.03 "Hg10 mi
8:52 AM73 °FSunny.No wind76%30.02 "Hg7 mi
7:52 AM69 °FSunny.No wind84%30.00 "Hg6 mi
6:52 AM63 °FFog.No wind90%29.98 "Hg6 mi
6:01 AM61 °FFog.No wind93%29.98 "Hg1 mi
4:54 AM62 °FFog.No wind93%29.96 "Hg1 mi
3:52 AM62 °FFog.No wind90%29.95 "Hg0 mi
3:03 AM62 °FFog.No wind93%29.97 "Hg0 mi
2:52 AM63 °FFog.3 mph90%29.96 "Hg1 mi
2:01 AM63 °FFog.No wind93%29.97 "Hg0 mi
Weather by CustomWeather, © 2015

See weather overviewHow to use our weather pages